Moosic, PA

9:39 PM EDT on September 28, 2016 (GMT -0400)
Wilkes-Barre-Scranton International

Weather History for KAVP - January, 2013

Change the Weather History Date:

Wednesday, January 30, 2013

  Actual Average Record
Temperature  
Mean Temperature 51 °F 26 °F  
Max Temperature 63 °F 34 °F 66 °F (1947)
Min Temperature 39 °F 19 °F -3 °F (1948)
Degree Days  
Heating Degree Days 14 39  
Month to date heating degree days 1080 1169  
Since 1 July heating degree days 3194 3547  
Cooling Degree Days 0 0  
Month to date cooling degree days 0 0  
Year to date cooling degree days 0 0  
Growing Degree Days 6 (Base 50)    
Moisture  
Dew Point 50 °F    
Average Humidity 74    
Maximum Humidity 96    
Minimum Humidity 52    
Precipitation  
Precipitation 0.31 in 0.08 in 1.09 in (1939)
Month to date precipitation 1.57 2.29  
Year to date precipitation 1.57 2.29  
Sea Level Pressure  
Sea Level Pressure 29.64 in    
Wind  
Wind Speed 8 mph (SSW)    
Max Wind Speed 21 mph    
Max Gust Speed 30 mph    
Visibility 7 miles    
Events Rain    
T = Trace of Precipitation, MM = Missing Value Source: NWS Daily Summary

Daily Weather History Graph

Daily Weather History Graph

Search for Another Location

Airport or City:

Trip Planner

Search our weather history database for the weather conditions in past years. The results will help you decide how hot, cold, wet, or windy it might be!

Date:

Astronomy

Jan. 30, 2013 Rise Set
Actual Time 7:15 AM EST 5:17 PM EST
Civil Twilight 6:46 AM EST 5:46 PM EST
Nautical Twilight 6:13 AM EST 6:19 PM EST
Astronomical Twilight 5:40 AM EST 6:52 PM EST
Moon 9:16 PM EST (1/30) 8:39 AM EST (1/30)
Length of Visible Light 10h 59m
Length of Day
10h 01m
Waning Gibbous, 88% of the Moon is Illuminated
Jan 30
Waning Gibbous
Feb 3
Last Quarter
Feb 10
New
Feb 17
First Quarter
Feb 25
Full

Hourly Weather History & Observations

Time (EST) Temp. Dew Point Humidity Pressure Visibility Wind Dir Wind Speed Gust Speed Precip Events Conditions
12:54 AM 50.0 °F 42.8 °F 76% 29.93 in 5.0 mi Calm Calm - N/A   Haze
1:54 AM 53.1 °F 44.1 °F 71% 29.92 in 6.0 mi WSW 6.9 mph - N/A   Haze
2:54 AM 52.0 °F 43.0 °F 71% 29.89 in 6.0 mi SSW 3.5 mph - N/A   Haze
3:54 AM 63.0 °F 44.1 °F 50% 29.84 in 7.0 mi SW 9.2 mph - N/A   Clear
4:50 AM 60.8 °F 44.6 °F 55% 29.83 in 6.0 mi SSW 5.8 mph - 0.01 in   Haze
4:54 AM 61.0 °F 45.0 °F 56% 29.83 in 6.0 mi South 5.8 mph - 0.01 in   Haze
5:54 AM 60.1 °F 46.0 °F 60% 29.80 in 6.0 mi SW 8.1 mph - N/A   Haze
6:47 AM 62.6 °F 46.4 °F 55% 29.78 in 6.0 mi SW 9.2 mph - N/A   Haze
6:54 AM 62.6 °F 46.4 °F 55% 29.79 in 6.0 mi SW 8.1 mph 16.1 mph N/A   Haze
7:54 AM 55.9 °F 46.9 °F 72% 29.77 in 4.0 mi WSW 8.1 mph 18.4 mph 0.01 in   Haze
8:54 AM 51.8 °F 50.0 °F 94% 29.73 in 5.0 mi South 11.5 mph 25.3 mph N/A   Overcast
9:54 AM 51.8 °F 50.0 °F 94% 29.70 in 5.0 mi South 16.1 mph 25.3 mph 0.01 in   Overcast
10:54 AM 54.0 °F 51.1 °F 90% 29.68 in 4.0 mi SSW 10.4 mph 16.1 mph 0.01 in   Overcast
11:54 AM 55.9 °F 52.0 °F 87% 29.62 in 5.0 mi South 15.0 mph 24.2 mph 0.01 in   Overcast
12:54 PM 55.9 °F 52.0 °F 87% 29.56 in 6.0 mi SSE 8.1 mph 21.9 mph N/A   Overcast
1:02 PM 55.4 °F 53.6 °F 94% 29.56 in 6.0 mi SSE 9.2 mph - N/A   Overcast
1:40 PM 60.8 °F 53.6 °F 77% 29.54 in 8.0 mi Variable 6.9 mph 20.7 mph 0.01 in   Overcast
1:54 PM 61.0 °F 55.0 °F 81% 29.52 in 6.0 mi South 10.4 mph 24.2 mph 0.01 in Rain Light Rain
2:54 PM 63.0 °F 55.9 °F 78% 29.49 in 9.0 mi SSW 16.1 mph 28.8 mph 0.03 in   Overcast
3:27 PM 60.8 °F 57.2 °F 88% 29.54 in 4.0 mi SW 12.7 mph 27.6 mph 0.01 in Rain Light Rain
3:54 PM 60.1 °F 55.0 °F 83% 29.55 in 10.0 mi WSW 9.2 mph - 0.02 in Rain Light Rain
4:54 PM 57.9 °F 54.0 °F 87% 29.54 in 9.0 mi SW 6.9 mph - 0.02 in Rain Light Rain
5:54 PM 57.0 °F 52.0 °F 83% 29.52 in 9.0 mi Calm Calm - 0.00 in Rain Light Rain
6:54 PM 55.0 °F 52.0 °F 89% 29.51 in 4.0 mi Calm Calm - 0.02 in Rain Rain
7:54 PM 55.9 °F 52.0 °F 87% 29.49 in 9.0 mi South 3.5 mph - 0.04 in Rain Light Rain
8:54 PM 55.0 °F 52.0 °F 89% 29.44 in 7.0 mi SSE 8.1 mph - 0.02 in Rain Rain
9:54 PM 55.0 °F 51.1 °F 86% 29.39 in 9.0 mi SE 6.9 mph 16.1 mph 0.04 in Rain Light Rain
10:54 PM 55.0 °F 51.1 °F 86% 29.32 in 10.0 mi SE 9.2 mph - 0.02 in Rain Light Rain
11:54 PM 55.0 °F 51.1 °F 86% 29.24 in 8.0 mi Variable 3.5 mph - 0.03 in Rain Light Rain